Location: Chequamegon National Forest
(46.1070°N, 90.8420°W)
Time: 01:31:02
(UTC-05:00)

Amateur Radio Satellites - All Passes

Search period start: 02 April 2015 01:01
Search period end: 03 April 2015 01:01
Location: Chequamegon National Forest, 46.1070°N, 90.8420°W

Satellite Date Start Highest point End Downlink Frequencies (MHz)
Time Altitude Azimuth
SPROUT 02 Apr 01:01:54 01:05:55 38° 263° (W) 01:09:55 437.525
DUCHIFAT 1 02 Apr 01:24:15 01:27:32 22° 295° (WNW) 01:30:45 145.980
QB50P1 02 Apr 01:24:44 01:28:00 21° 295° (WNW) 01:31:11 145.935-145.965
SWISSCUBE 02 Apr 01:33:45 01:38:32 73° 74° (ENE) 01:43:22 437.505
UNISAT 6 02 Apr 01:34:42 01:36:39 12° 301° (WNW) 01:38:26 437.425
BEESAT 02 Apr 01:36:01 01:40:47 71° 74° (ENE) 01:45:36 436.000
QB50P2 02 Apr 01:41:35 01:44:08 15° 298° (WNW) 01:46:32 145.880/145.840
TIGRISAT 02 Apr 01:43:56 01:44:57 11° 302° (WNW) 01:45:45 435.000
YUBILEINY 02 Apr 01:44:45 01:53:22 59° 268° (W) 02:01:52 435.215
BUGSAT 1 02 Apr 01:47:35 01:50:13 17° 296° (WNW) 01:52:43 437.445
ISS 02 Apr 01:50:35 01:53:34 31° 8° (N) 01:56:31 145.825
RS-15 02 Apr 01:51:35 02:02:07 42° 30° (NNE) 02:13:12 29.354- 29.394
ITAMSAT 1 02 Apr 02:07:59 02:10:08 13° 86° (E) 02:12:34 435.822/435.867
KKS-1 02 Apr 02:18:19 02:22:23 37° 69° (ENE) 02:26:29 437.445
SO-50 02 Apr 02:23:14 02:28:03 48° 47° (NE) 02:32:51 436.795
ITUPSAT 1 02 Apr 02:25:48 02:30:22 41° 262° (W) 02:34:56 437.325
Oscar 19 02 Apr 02:30:55 02:36:04 62° 101° (E) 02:41:13 437.125/150
STARS 02 Apr 02:40:55 02:45:00 41° 70° (ENE) 02:49:08 437.465
AIST 1 02 Apr 03:10:41 03:13:26 17° 86° (E) 03:16:20
SWISSCUBE 02 Apr 03:14:19 03:17:01 14° 272° (W) 03:19:30 437.505
BEESAT 02 Apr 03:16:27 03:19:14 15° 272° (W) 03:21:49 436.000
Gurwin Techsat 1B 02 Apr 03:18:00 03:23:07 46° 98° (E) 03:28:13 435.225
ISS 02 Apr 03:27:00 03:30:15 85° 23° (NNE) 03:33:29 145.825
AO-7 02 Apr 03:36:54 03:41:29 16° 85° (E) 03:46:34 29.400- 29.500
O/OREOS (USA 219) 02 Apr 03:41:42 03:46:09 51° 109° (ESE) 03:50:38 437.305
ITAMSAT 1 02 Apr 03:45:16 03:50:29 88° 288° (WNW) 03:55:40 435.822/435.867
YUBILEINY 02 Apr 03:45:36 03:48:26 11° 289° (WNW) 03:50:34 435.215
JAS-2 02 Apr 03:50:40 03:55:39 19° 82° (E) 04:00:42 435.910
KKS-1 02 Apr 03:55:31 03:59:10 24° 267° (W) 04:02:45 437.445
M-CUBED/EXP-1 PRIME 02 Apr 03:59:48 04:02:31 17° 54° (NE) 04:05:28 437.505
SO-50 02 Apr 04:04:11 04:08:26 28° 245° (WSW) 04:12:34 436.795
RS-15 02 Apr 04:04:21 04:15:50 82° 236° (WSW) 04:27:49 29.354- 29.394
GONETS M04 02 Apr 04:08:16 04:11:18 12° 46° (NE) 04:14:54
Oscar 19 02 Apr 04:11:12 04:15:02 21° 299° (WNW) 04:18:44 437.125/150
STARS 02 Apr 04:18:15 04:21:41 21° 268° (W) 04:25:01 437.465
HORYU 2 02 Apr 04:20:46 04:25:04 42° 98° (E) 04:29:22 437.375
MOZHAYETS 4 02 Apr 04:21:41 04:26:04 43° 70° (ENE) 04:30:29
VERMONT LUNAR 02 Apr 04:43:08 04:45:34 19° 162° (SSE) 04:48:02 437.305
AIST 1 02 Apr 04:46:28 04:50:45 49° 283° (WNW) 04:55:02
Gurwin Techsat 1B 02 Apr 04:58:26 05:02:54 28° 296° (WNW) 05:07:18 435.225
ISS 02 Apr 05:04:12 05:06:17 16° 224° (SW) 05:08:18 145.825
AUBIESAT-1 02 Apr 05:04:38 05:08:46 56° 67° (ENE) 05:13:17 437.475
O/OREOS (USA 219) 02 Apr 05:22:16 05:25:54 22° 309° (NW) 05:29:28 437.305
ITAMSAT 1 02 Apr 05:26:30 05:29:19 14° 303° (WNW) 05:31:55 435.822/435.867
PRISM 02 Apr 05:27:10 05:29:23 14° 61° (ENE) 05:31:45 437.425
AO-7 02 Apr 05:27:32 05:35:52 77° 106° (ESE) 05:44:12 29.400- 29.500
STRAND 1 02 Apr 05:32:31 05:35:19 15° 58° (ENE) 05:38:19 437.568
M-CUBED/EXP-1 PRIME 02 Apr 05:32:41 05:36:51 69° 253° (WSW) 05:41:24 437.505
JAS-2 02 Apr 05:34:09 05:41:58 89° 104° (ESE) 05:49:03 435.910
PHONESAT 2.4 02 Apr 05:57:30 06:00:23 24° 165° (SSE) 06:03:18 2401.200-2431.200
HORYU 2 02 Apr 05:57:55 06:01:31 23° 295° (WNW) 06:05:00 437.375
MOZHAYETS 4 02 Apr 05:59:49 06:03:31 22° 269° (W) 06:07:08
GONETS M04 02 Apr 06:02:22 06:10:57 53° 73° (ENE) 06:19:33
RS-15 02 Apr 06:18:18 06:26:51 23° 258° (WSW) 06:35:02 29.354- 29.394
VERMONT LUNAR 02 Apr 06:19:45 06:22:45 31° 178° (S) 06:25:45 437.305
CUBESAT XI-V 02 Apr 06:20:02 06:24:39 58° 72° (ENE) 06:29:17 437.345
CUTE-I 02 Apr 06:36:58 06:41:21 26° 93° (E) 06:45:49 437.470
Cubesat XI-IV 02 Apr 06:38:23 06:42:50 27° 93° (E) 06:47:21 437.490
AUBIESAT-1 02 Apr 06:41:14 06:44:04 17° 267° (W) 06:46:54 437.475
PRISM 02 Apr 07:00:12 07:04:25 66° 258° (WSW) 07:08:38 437.425
DANDE 02 Apr 07:03:15 07:06:52 27° 74° (ENE) 07:11:31 436.750
STRAND 1 02 Apr 07:08:45 07:13:54 87° 255° (WSW) 07:19:06 437.568
JAS-2 02 Apr 07:20:11 07:26:04 24° 305° (NW) 07:31:27 435.910
AO-7 02 Apr 07:21:08 07:28:03 30° 307° (NW) 07:34:48 29.400- 29.500
CUSAT 1 02 Apr 07:30:17 07:34:44 64° 78° (ENE) 07:40:44 437.405
PHONESAT 2.4 02 Apr 07:35:04 07:38:16 32° 182° (S) 07:41:28 2401.200-2431.200
VERMONT LUNAR 02 Apr 07:57:16 07:59:58 23° 195° (SSW) 08:02:40 437.305
CUBESAT XI-V 02 Apr 07:59:19 08:02:31 17° 271° (W) 08:05:34 437.345
GONETS M04 02 Apr 07:59:36 08:07:38 39° 274° (W) 08:15:31
CUTE-I 02 Apr 08:16:36 08:21:41 46° 291° (WNW) 08:26:44 437.470
Cubesat XI-IV 02 Apr 08:18:05 08:23:10 45° 292° (WNW) 08:28:11 437.490
GOMX 1 02 Apr 08:25:49 08:26:26 10° 86° (E) 08:27:19 467.674
HO-68 02 Apr 08:35:59 08:40:55 20° 88° (E) 08:46:07 435.675
DANDE 02 Apr 08:46:10 08:50:08 34° 263° (W) 08:55:13 436.750
STRAND 1 02 Apr 08:52:01 08:54:00 12° 275° (W) 08:55:39 437.568
BEESAT 2 02 Apr 08:57:49 09:00:16 16° 112° (ESE) 09:02:52 435.950
PHONESAT 2.4 02 Apr 09:13:25 09:16:06 20° 199° (SSW) 09:18:46 2401.200-2431.200
CUSAT 1 02 Apr 09:14:17 09:17:28 17° 267° (W) 09:20:58 437.405
UNISAT 6 02 Apr 09:23:28 09:25:31 14° 60° (ENE) 09:27:47 437.425
CANX-2 02 Apr 09:26:15 09:30:19 39° 97° (E) 09:34:24 2200.000
BEESAT 3 02 Apr 09:28:13 09:31:58 36° 118° (ESE) 09:35:48 437.485
DOVE 4 02 Apr 09:29:23 09:33:21 33° 96° (E) 09:37:32 437.250
TIGRISAT 02 Apr 09:31:11 09:33:40 16° 62° (ENE) 09:36:19 435.000
BRITE-PL 02 Apr 09:36:03 09:40:18 83° 103° (ESE) 09:44:47 437.365/2234.400
CUTE 1.7 + AOD 2 02 Apr 09:39:26 09:43:39 49° 99° (E) 09:47:51 437.475
UWE-3 02 Apr 09:45:31 09:47:14 12° 87° (E) 09:49:13 435.000/436.395/437.385
AAUSAT CUBESAT 2 02 Apr 09:47:36 09:51:31 36° 96° (E) 09:55:27 437.432
POPSAT HIP 1 02 Apr 09:54:06 09:56:16 14° 62° (ENE) 09:58:35 437.405
CUBEBUG 2 02 Apr 09:58:22 10:01:38 20° 91° (E) 10:05:07 437.445
GOMX 1 02 Apr 10:00:53 10:05:13 83° 284° (WNW) 10:09:47 467.674
SEEDS 02 Apr 10:02:14 10:06:32 73° 102° (ESE) 10:10:48 437.485
ANTELSAT 02 Apr 10:02:15 10:06:01 31° 67° (ENE) 10:09:54 437.575/2403.000
NANOSAT C BR1 02 Apr 10:02:17 10:04:57 17° 63° (ENE) 10:07:43 145.865
POLYITAN 1 02 Apr 10:10:02 10:13:07 20° 65° (ENE) 10:16:16 437.675
CINEMA 3 02 Apr 10:14:22 10:18:43 50° 99° (E) 10:23:17 145.822/145.860
COMPASS 1 02 Apr 10:18:05 10:22:23 88° 103° (ESE) 10:26:37 437.405
UKube-1 02 Apr 10:18:37 10:20:48 14° 89° (E) 10:23:11 .
HO-68 02 Apr 10:22:22 10:29:37 84° 288° (WNW) 10:36:49 435.675
AIST 2 02 Apr 10:33:03 10:37:10 50° 121° (ESE) 10:41:22 435.215
DX 1 02 Apr 10:33:49 10:37:06 21° 92° (E) 10:40:29 434.975-435.025
BEESAT 2 02 Apr 10:33:53 10:37:59 62° 309° (NW) 10:42:09 435.950
DELFI C3 02 Apr 10:35:44 10:39:40 43° 98° (E) 10:43:36 145.870
DUCHIFAT 1 02 Apr 10:42:52 10:46:47 40° 70° (ENE) 10:50:45 145.980
QB50P1 02 Apr 10:43:33 10:47:31 42° 71° (ENE) 10:51:32 145.935-145.965
Oscar 11 02 Apr 10:45:00 10:49:24 71° 102° (ESE) 10:53:45 145.826/435.025
UNISAT 6 02 Apr 10:57:30 11:01:47 73° 258° (WSW) 11:06:10 437.425
QB50P2 02 Apr 10:59:44 11:03:54 64° 74° (ENE) 11:08:06 145.880/145.840
CANX-2 02 Apr 11:02:39 11:06:04 23° 294° (WNW) 11:09:24 2200.000
BUGSAT 1 02 Apr 11:03:33 11:07:32 49° 72° (ENE) 11:11:31 437.445
FUNcube-1 02 Apr 11:04:05 11:08:28 61° 100° (E) 11:12:55 145.935
TIGRISAT 02 Apr 11:05:45 11:09:59 62° 259° (W) 11:14:18 435.000
BEESAT 3 02 Apr 11:06:25 11:10:05 30° 317° (NW) 11:13:46 437.485
DOVE 4 02 Apr 11:07:20 11:11:06 28° 292° (WNW) 11:14:56 437.250
CUTE 1.7 + AOD 2 02 Apr 11:16:12 11:19:16 19° 296° (WNW) 11:22:13 437.475
BRITE-PL 02 Apr 11:16:52 11:18:23 11° 299° (WNW) 11:19:43 437.365/2234.400
ZACube-1 02 Apr 11:18:40 11:23:07 87° 104° (ESE) 11:27:39 437.345
CUBEBUG 1 02 Apr 11:19:22 11:21:29 14° 88° (E) 11:23:48 437.445
UWE-3 02 Apr 11:19:55 11:24:22 76° 284° (WNW) 11:28:55 435.000/436.395/437.385
AAUSAT CUBESAT 2 02 Apr 11:23:35 11:27:00 23° 294° (WNW) 11:30:19 437.432
POPSAT HIP 1 02 Apr 11:27:31 11:31:42 66° 258° (WSW) 11:35:54 437.405
VELOX 1 02 Apr 11:30:49 11:34:55 37° 97° (E) 11:39:00 145.980
50 SAT 02 Apr 11:30:52 11:34:41 39° 98° (E) 11:38:31 437.505
CUBEBUG 2 02 Apr 11:34:19 11:38:35 46° 288° (WNW) 11:42:58 437.445
HUMSAT D 02 Apr 11:34:56 11:39:13 67° 102° (ESE) 11:43:30 437.325/437.525
NANOSAT C BR1 02 Apr 11:36:20 11:40:27 53° 260° (W) 11:44:35 145.865
AISAT 02 Apr 11:37:21 11:41:35 44° 99° (E) 11:45:49 437.250
ANTELSAT 02 Apr 11:39:07 11:42:50 28° 266° (W) 11:46:36 437.575/2403.000
SEEDS 02 Apr 11:39:40 11:41:50 13° 299° (WNW) 11:43:51 437.485
GOMX 1 02 Apr 11:42:09 11:42:49 10° 300° (WNW) 11:43:16 467.674
POLYITAN 1 02 Apr 11:44:47 11:48:48 42° 262° (W) 11:52:49 437.675
CINEMA 3 02 Apr 11:52:25 11:55:40 20° 295° (WNW) 11:58:55 145.822/145.860
UKube-1 02 Apr 11:53:09 11:57:27 62° 287° (WNW) 12:01:43 .
COMPASS 1 02 Apr 11:56:06 11:57:28 11° 300° (WNW) 11:58:39 437.405
DX 1 02 Apr 12:09:28 12:13:34 40° 291° (WNW) 12:17:37 434.975-435.025
O/OREOS (USA 219) 02 Apr 12:10:30 12:13:56 21° 50° (NE) 12:17:25 437.305
HO-68 02 Apr 12:11:22 12:16:28 21° 308° (NW) 12:21:19 435.675
DELFI C3 02 Apr 12:11:37 12:14:35 19° 295° (WNW) 12:17:26 145.870
AIST 2 02 Apr 12:12:25 12:16:02 25° 320° (NW) 12:19:37 435.215
Oscar 19 02 Apr 12:13:24 12:16:40 18° 60° (ENE) 12:20:06 437.125/150
BEESAT 2 02 Apr 12:14:53 12:17:00 13° 331° (NNW) 12:19:02 435.950
DUCHIFAT 1 02 Apr 12:19:41 12:22:50 20° 268° (W) 12:25:54 145.980
QB50P1 02 Apr 12:20:32 12:23:39 19° 269° (W) 12:26:39 145.935-145.965
TISAT 1 02 Apr 12:20:36 12:22:37 13° 88° (E) 12:24:49 437.305
ESTCUBE 1 02 Apr 12:21:37 12:26:08 67° 102° (ESE) 12:30:37 437.505/2401.250
Oscar 11 02 Apr 12:22:42 12:25:05 14° 299° (WNW) 12:27:18 145.826/435.025
QB50P2 02 Apr 12:38:16 12:40:19 13° 272° (W) 12:42:11 145.880/145.840
BUGSAT 1 02 Apr 12:40:43 12:43:21 16° 270° (W) 12:45:50 437.445
FUNcube-1 02 Apr 12:41:34 12:44:25 17° 297° (WNW) 12:47:10 145.935
SPROUT 02 Apr 12:46:00 12:49:47 30° 95° (E) 12:53:35 437.525
YUBILEINY 02 Apr 12:52:44 13:00:23 36° 85° (E) 13:08:15 435.215
CUBEBUG 1 02 Apr 12:54:04 12:58:22 63° 287° (WNW) 13:02:37 437.445
ZACube-1 02 Apr 12:57:04 12:58:55 12° 299° (WNW) 13:00:37 437.345
UWE-3 02 Apr 12:59:58 13:00:15 10° 301° (WNW) 13:00:17 435.000/436.395/437.385
Gurwin Techsat 1B 02 Apr 13:04:44 13:07:36 15° 58° (ENE) 13:10:42 435.225
50 SAT 02 Apr 13:06:19 13:09:23 20° 294° (WNW) 13:12:21 437.505
VELOX 1 02 Apr 13:07:43 13:11:21 25° 294° (WNW) 13:14:53 145.980
HUMSAT D 02 Apr 13:12:07 13:14:32 15° 298° (WNW) 13:16:48 437.325/437.525
AISAT 02 Apr 13:14:34 13:17:57 21° 296° (WNW) 13:21:14 437.250
ITAMSAT 1 02 Apr 13:27:33 13:31:50 27° 64° (ENE) 13:36:14 435.822/435.867
SWISSCUBE 02 Apr 13:33:00 13:35:43 15° 88° (E) 13:38:38 437.505
BEESAT 02 Apr 13:35:13 13:37:51 15° 88° (E) 13:40:41 436.000
PCSat 02 Apr 13:38:54 13:43:25 28° 110° (ESE) 13:48:02 145.827
O/OREOS (USA 219) 02 Apr 13:49:16 13:53:43 53° 250° (WSW) 13:58:07 437.305
Oscar 19 02 Apr 13:50:25 13:55:30 73° 257° (WSW) 14:00:41 437.125/150
TISAT 1 02 Apr 13:54:44 13:58:53 61° 287° (WNW) 14:03:01 437.305
ESTCUBE 1 02 Apr 13:59:47 14:02:32 16° 299° (WNW) 14:05:09 437.505/2401.250
JAS-2 02 Apr 14:07:11 14:10:47 15° 47° (NE) 14:14:48 435.910
SPROUT 02 Apr 14:22:08 14:25:50 28° 292° (WNW) 14:29:29 437.525
ITUPSAT 1 02 Apr 14:23:40 14:28:14 42° 98° (E) 14:32:45 437.325
AO-7 02 Apr 14:38:09 14:45:10 33° 55° (NE) 14:52:21 29.400- 29.500
Gurwin Techsat 1B 02 Apr 14:41:36 14:46:55 90° 126° (SE) 14:52:18 435.225
YUBILEINY 02 Apr 14:48:15 14:56:55 57° 286° (WNW) 15:05:36 435.215
AIST 1 02 Apr 14:50:59 14:55:12 51° 77° (ENE) 14:59:22
ITAMSAT 1 02 Apr 15:06:09 15:11:09 45° 261° (W) 15:16:10 435.822/435.867
SWISSCUBE 02 Apr 15:09:22 15:14:09 67° 287° (WNW) 15:18:52 437.505
BEESAT 02 Apr 15:11:30 15:16:17 69° 286° (WNW) 15:21:01 436.000
PCSat 02 Apr 15:21:21 15:26:37 50° 309° (NW) 15:31:55 145.827
HORYU 2 02 Apr 15:21:27 15:25:46 53° 72° (ENE) 15:30:09 437.375
KKS-1 02 Apr 15:43:02 15:47:24 53° 100° (E) 15:51:46 437.445
JAS-2 02 Apr 15:47:13 15:54:14 56° 68° (ENE) 16:01:51 435.910
ITUPSAT 1 02 Apr 16:01:58 16:05:56 26° 296° (WNW) 16:09:49 437.325
STARS 02 Apr 16:04:11 16:08:33 57° 100° (E) 16:12:54 437.465
BEESAT 3 02 Apr 16:08:10 16:09:42 12° 27° (NNE) 16:11:19 437.485
Gurwin Techsat 1B 02 Apr 16:25:16 16:27:47 13° 275° (W) 16:30:00 435.225
AO-7 02 Apr 16:29:13 16:37:30 69° 255° (WSW) 16:45:48 29.400- 29.500
AIST 1 02 Apr 16:29:52 16:32:28 15° 274° (W) 16:34:55
YUBILEINY 02 Apr 16:52:06 16:56:21 13° 313° (NW) 17:00:06 435.215
BEESAT 02 Apr 16:52:38 16:53:20 10° 304° (NW) 16:53:47 436.000
HORYU 2 02 Apr 16:59:49 17:02:49 17° 270° (W) 17:05:41 437.375
PCSat 02 Apr 17:08:31 17:11:25 14° 332° (NNW) 17:14:12 145.827
BEESAT 2 02 Apr 17:13:26 17:16:58 26° 41° (NE) 17:20:30 435.950
AIST 2 02 Apr 17:14:57 17:17:26 15° 31° (NNE) 17:20:00 435.215
KKS-1 02 Apr 17:20:34 17:23:42 19° 297° (WNW) 17:26:44 437.445
JAS-2 02 Apr 17:33:05 17:39:37 35° 269° (W) 17:46:34 435.910
STARS 02 Apr 17:41:41 17:44:38 17° 298° (WNW) 17:47:28 437.465
BEESAT 3 02 Apr 17:44:41 17:48:44 52° 49° (NE) 17:52:43 437.485
MOZHAYETS 4 02 Apr 17:51:07 17:55:48 74° 103° (ESE) 18:00:26
CUTE-I 02 Apr 18:01:06 18:06:18 55° 70° (ENE) 18:11:33 437.470
Cubesat XI-IV 02 Apr 18:02:41 18:07:55 57° 71° (ENE) 18:13:12 437.490
CUBESAT XI-V 02 Apr 18:16:25 18:18:00 12° 85° (E) 18:19:50 437.345
AUBIESAT-1 02 Apr 18:18:19 18:22:41 33° 100° (E) 18:26:55 437.475
SO-50 02 Apr 18:20:10 18:24:42 55° 121° (ESE) 18:29:26 436.795
AO-7 02 Apr 18:27:51 18:32:06 14° 277° (W) 18:35:47 29.400- 29.500
RS-15 02 Apr 18:30:58 18:41:12 52° 114° (ESE) 18:51:46 29.354- 29.394
PRISM 02 Apr 18:41:45 18:43:58 14° 89° (E) 18:46:20 437.425
M-CUBED/EXP-1 PRIME 02 Apr 18:46:37 18:51:29 69° 107° (ESE) 18:56:11 437.505
BEESAT 2 02 Apr 18:51:20 18:55:17 43° 240° (WSW) 18:59:10 435.950
AIST 2 02 Apr 18:52:32 18:56:50 73° 52° (NE) 19:01:01 435.215
GONETS M04 02 Apr 19:06:25 19:14:44 54° 91° (E) 19:23:13
HO-68 02 Apr 19:08:04 19:13:13 23° 54° (NE) 19:18:36 435.675
BRITE-PL 02 Apr 19:13:42 19:16:03 15° 63° (ENE) 19:18:30 437.365/2234.400
STRAND 1 02 Apr 19:17:17 19:21:29 26° 93° (E) 19:25:46 437.568
BEESAT 3 02 Apr 19:23:31 19:26:28 19° 247° (WSW) 19:29:16 437.485
MOZHAYETS 4 02 Apr 19:29:47 19:32:30 15° 299° (WNW) 19:35:03
GOMX 1 02 Apr 19:36:02 19:38:31 16° 64° (ENE) 19:41:05 467.674
COMPASS 1 02 Apr 19:40:48 19:40:50 10° 59° (ENE) 19:41:05 437.405
CUTE-I 02 Apr 19:42:34 19:46:47 22° 269° (W) 19:50:53 437.470
Cubesat XI-IV 02 Apr 19:44:19 19:48:28 22° 270° (W) 19:52:28 437.490
CUBESAT XI-V 02 Apr 19:51:31 19:56:10 81° 284° (WNW) 20:00:47 437.345
AUBIESAT-1 02 Apr 19:53:04 19:57:27 34° 298° (WNW) 20:01:41 437.475
SO-50 02 Apr 20:01:29 20:05:34 27° 322° (NW) 20:09:44 436.795
PRISM 02 Apr 20:15:46 20:19:53 56° 288° (WNW) 20:23:55 437.425
CANX-2 02 Apr 20:21:42 20:25:38 39° 70° (ENE) 20:29:39 2200.000
DANDE 02 Apr 20:22:13 20:23:39 14° 93° (E) 20:25:09 436.750
M-CUBED/EXP-1 PRIME 02 Apr 20:22:24 20:25:52 19° 304° (NW) 20:29:10 437.505
AIST 2 02 Apr 20:32:41 20:34:54 14° 249° (WSW) 20:36:56 435.215
CUTE 1.7 + AOD 2 02 Apr 20:34:43 20:38:48 48° 72° (ENE) 20:42:58 437.475
DOVE 4 02 Apr 20:38:00 20:41:59 42° 71° (ENE) 20:45:55 437.250
AAUSAT CUBESAT 2 02 Apr 20:41:01 20:44:48 34° 69° (ENE) 20:48:39 437.432
PCSat 02 Apr 20:41:19 20:43:35 13° 25° (NNE) 20:45:57 145.827
RS-15 02 Apr 20:42:53 20:53:36 57° 319° (NW) 21:04:37 29.354- 29.394
CUSAT 1 02 Apr 20:44:38 20:47:09 45° 98° (E) 20:49:43 437.405
ZACube-1 02 Apr 20:44:44 20:45:40 11° 59° (ENE) 20:46:48 437.345
UWE-3 02 Apr 20:45:51 20:47:50 14° 61° (ENE) 20:50:01 435.000/436.395/437.385
BRITE-PL 02 Apr 20:49:46 20:54:16 64° 259° (W) 20:58:30 437.365/2234.400
HO-68 02 Apr 20:52:59 21:00:11 88° 250° (WSW) 21:07:27 435.675
STRAND 1 02 Apr 20:56:03 21:00:55 44° 292° (WNW) 21:05:42 437.568
SEEDS 02 Apr 20:56:38 21:00:49 70° 75° (ENE) 21:05:05 437.485
CUBEBUG 2 02 Apr 20:59:45 21:02:53 22° 66° (ENE) 21:06:09 437.445
GONETS M04 02 Apr 21:03:59 21:12:00 38° 293° (WNW) 21:19:59
COMPASS 1 02 Apr 21:11:40 21:15:52 83° 76° (ENE) 21:20:07 437.405
GOMX 1 02 Apr 21:12:04 21:16:21 56° 260° (W) 21:20:29 467.674
UKube-1 02 Apr 21:15:57 21:18:52 18° 63° (ENE) 21:21:53 .
CINEMA 3 02 Apr 21:19:03 21:23:08 60° 74° (ENE) 21:27:15 145.822/145.860
DELFI C3 02 Apr 21:25:54 21:29:41 38° 70° (ENE) 21:33:32 145.870
CUBESAT XI-V 02 Apr 21:31:28 21:32:54 11° 302° (WNW) 21:34:07 437.345
DX 1 02 Apr 21:31:53 21:35:30 27° 66° (ENE) 21:39:12 434.975-435.025
Oscar 11 02 Apr 21:42:03 21:46:22 75° 75° (ENE) 21:50:43 145.826/435.025
ISS 02 Apr 21:43:34 21:46:37 37° 143° (SE) 21:49:41 145.825
SO-50 02 Apr 21:46:58 21:47:48 10° 346° (NNW) 21:48:34 436.795
ESTCUBE 1 02 Apr 21:50:34 21:51:54 11° 58° (ENE) 21:53:26 437.505/2401.250
CANX-2 02 Apr 21:58:26 22:01:46 21° 269° (W) 22:05:01 2200.000
FUNcube-1 02 Apr 22:02:31 22:06:36 63° 74° (ENE) 22:10:47 145.935
DANDE 02 Apr 22:05:14 22:06:52 15° 291° (WNW) 22:08:26 436.750
CUTE 1.7 + AOD 2 02 Apr 22:12:10 22:15:04 17° 270° (W) 22:17:51 437.475
DOVE 4 02 Apr 22:17:01 22:20:02 18° 269° (W) 22:22:54 437.250
AAUSAT CUBESAT 2 02 Apr 22:17:07 22:20:32 23° 267° (W) 22:23:55 437.432
ZACube-1 02 Apr 22:17:17 22:21:26 88° 256° (WSW) 22:25:40 437.345
CUBEBUG 1 02 Apr 22:18:02 22:20:52 18° 63° (ENE) 22:23:50 437.445
50 SAT 02 Apr 22:19:28 22:22:58 32° 69° (ENE) 22:26:33 437.505
UWE-3 02 Apr 22:19:47 22:23:54 67° 258° (WSW) 22:28:07 435.000/436.395/437.385
PCSat 02 Apr 22:23:23 22:28:32 42° 48° (NE) 22:33:42 145.827
HUMSAT D 02 Apr 22:29:17 22:33:21 64° 74° (ENE) 22:37:28 437.325/437.525
VELOX 1 02 Apr 22:30:51 22:35:05 46° 71° (ENE) 22:39:20 145.980
SEEDS 02 Apr 22:35:28 22:37:13 12° 274° (W) 22:38:47 437.485
CUBEBUG 2 02 Apr 22:35:33 22:39:26 37° 263° (W) 22:43:20 437.445
AISAT 02 Apr 22:37:36 22:41:56 55° 72° (ENE) 22:46:17 437.250
HO-68 02 Apr 22:44:18 22:49:03 18° 274° (W) 22:53:29 435.675
UNISAT 6 02 Apr 22:47:26 22:50:50 20° 91° (E) 22:54:22 437.425
UKube-1 02 Apr 22:50:26 22:54:41 52° 260° (W) 22:58:56 .
TIGRISAT 02 Apr 22:55:08 22:58:48 23° 92° (E) 23:02:36 435.000
CINEMA 3 02 Apr 22:58:49 23:00:52 13° 272° (W) 23:02:43 145.822/145.860
YUBILEINY 02 Apr 22:59:18 23:05:27 21° 56° (NE) 23:11:55 435.215
RS-15 02 Apr 22:59:33 23:09:02 31° 351° (N) 23:18:46 29.354- 29.394
DELFI C3 02 Apr 23:01:56 23:05:02 20° 268° (W) 23:08:04 145.870
DX 1 02 Apr 23:07:42 23:11:40 33° 263° (W) 23:15:37 434.975-435.025
POPSAT HIP 1 02 Apr 23:11:16 23:13:58 17° 90° (E) 23:16:48 437.405
TISAT 1 02 Apr 23:15:37 23:18:04 16° 62° (ENE) 23:20:38 437.305
NANOSAT C BR1 02 Apr 23:19:26 23:22:34 20° 92° (E) 23:25:47 145.865
ISS 02 Apr 23:19:50 23:22:59 45° 341° (NNW) 23:26:09 145.825
Oscar 11 02 Apr 23:21:33 23:23:11 12° 274° (W) 23:24:34 145.826/435.025
ESTCUBE 1 02 Apr 23:23:32 23:28:06 83° 74° (ENE) 23:32:41 437.505/2401.250
ANTELSAT 02 Apr 23:27:32 23:32:02 49° 99° (E) 23:36:35 437.575/2403.000
POLYITAN 1 02 Apr 23:27:57 23:31:29 25° 94° (E) 23:35:04 437.675
FUNcube-1 02 Apr 23:41:33 23:43:30 13° 273° (W) 23:45:15 145.935
SPROUT 02 Apr 23:42:41 23:46:30 32° 69° (ENE) 23:50:22 437.525
CUBEBUG 1 02 Apr 23:52:34 23:56:53 55° 260° (W) 00:01:13 437.445
50 SAT 02 Apr 23:54:51 23:57:58 22° 267° (W) 00:01:02 437.505
DUCHIFAT 1 03 Apr 00:00:37 00:04:46 53° 100° (E) 00:08:55 145.980
QB50P1 03 Apr 00:01:43 00:05:54 56° 100° (E) 00:10:04 145.935-145.965
PCSat 03 Apr 00:07:00 00:11:54 35° 248° (WSW) 00:16:44 145.827
HUMSAT D 03 Apr 00:07:48 00:09:39 12° 273° (W) 00:11:19 437.325/437.525
VELOX 1 03 Apr 00:08:38 00:11:56 20° 269° (W) 00:15:07 145.980
AISAT 03 Apr 00:16:04 00:18:56 16° 270° (W) 00:21:39 437.250
QB50P2 03 Apr 00:18:19 00:22:35 86° 100° (E) 00:26:51 145.880/145.840
BUGSAT 1 03 Apr 00:18:35 00:22:35 60° 101° (E) 00:26:36 437.445
UNISAT 6 03 Apr 00:23:26 00:27:53 48° 289° (WNW) 00:32:23 437.425
TIGRISAT 03 Apr 00:31:23 00:35:44 42° 290° (WNW) 00:40:06 435.000
SWISSCUBE 03 Apr 00:41:44 00:45:35 25° 64° (ENE) 00:49:31 437.505
BEESAT 03 Apr 00:43:52 00:47:39 24° 64° (ENE) 00:51:32 436.000
POPSAT HIP 1 03 Apr 00:46:05 00:50:11 49° 288° (WNW) 00:54:17 437.405
TISAT 1 03 Apr 00:49:18 00:53:28 59° 260° (W) 00:57:37 437.305
